Flag for Micronesia Weather past 2 weeks in Kolonia, Pohnpei, Micronesia

Now
76 °F

Sprinkles. Mostly cloudy.


Feels Like: 75 °F
Forecast: 77 / 86 °F
Wind: 3 mph from West

Location: Pohnpei

Current Time: Aug 5, 2015 at 9:43:35 AM

Latest Report: Aug 5, 2015 at 8:53 AM


Visibility: 7 mi

Pressure: 29.87 "Hg

Humidity: 97%

Dew point: 75 °F

Location of KoloniaLocation

Historic Weather in Kolonia — Graph

°F

Kolonia temperature yesterday

Maximum temperature yesterday: 88 °F (at 12:54 PM)
Minimum temperature yesterday: 76 °F (at 11:52 PM)
Average temperature yesterday: 81 °F

Past Weeks' High & Low Weather Summary

 TemperatureHumidityPressure
High90 °F (Jul 23, 10:52 AM)100% (Aug 5, 12:53 AM)29.96 "Hg (Aug 5, 12:53 AM)
Low75 °F (Jul 25, 2:56 AM)65% (Jul 23, 10:52 AM)29.71 "Hg (Jul 31, 4:54 AM)
Average81 °F87%29.84 "Hg
* Reported Jul 21 7:51 AM — Aug 5 7:52 AM, Kolonia, Weather by CustomWeather, © 2015

Note: Actual official high and low records may vary slightly from our data, if they occured in-between our weather recording intervals... More about our weather records

Advertising

Kolonia weather history for previous 24 hours

 ConditionsComfort  
Time TempWeatherWind HumidityBarometerVisibility
7:52 AM
Wed, Aug 5
76 °FMostly cloudy.3 mph96%29.85 "Hg15 mi
6:53 AM75 °FSprinkles. Mostly cloudy.3 mph100%29.83 "Hg12 mi
5:50 AM76 °FSprinkles. Mostly cloudy.3 mph96%29.82 "Hg12 mi
4:50 AM76 °FMostly cloudy.3 mph96%29.82 "Hg15 mi
3:52 AM75 °FSprinkles. Mostly cloudy.3 mph95%29.80 "Hg12 mi
2:50 AM76 °FSprinkles. Mostly cloudy.3 mph96%29.81 "Hg12 mi
1:53 AM76 °FSprinkles. Mostly cloudy.3 mph96%29.83 "Hg12 mi
12:53 AM75 °FSprinkles. Mostly cloudy.3 mph100%29.83 "Hg12 mi
11:52 PM
Tue, Aug 4
76 °FRain showers. Mostly cloudy.3 mph99%29.85 "Hg6 mi
9:51 PM78 °FSprinkles. Mostly cloudy.5 mph97%29.83 "Hg10 mi
8:52 PM78 °FSprinkles. Mostly cloudy.3 mph97%29.81 "Hg15 mi
7:54 PM76 °FMostly cloudy.2 mph97%29.78 "Hg15 mi
6:52 PM78 °FRain showers. Mostly cloudy.5 mph93%29.78 "Hg6 mi
5:54 PM84 °FMore clouds than sun.3 mph80%29.75 "Hg15 mi
4:50 PM85 °FCloudy.5 mph79%29.75 "Hg15 mi
3:50 PM85 °FMore clouds than sun.5 mph84%29.75 "Hg15 mi
2:50 PM86 °FMore clouds than sun.3 mph83%29.76 "Hg15 mi
1:55 PM88 °FCloudy.3 mph70%29.78 "Hg15 mi
12:54 PM88 °FMore clouds than sun.5 mph76%29.81 "Hg15 mi
11:50 AM85 °FBroken clouds.3 mph86%29.82 "Hg15 mi
10:55 AM85 °FBroken clouds.6 mph79%29.83 "Hg15 mi
Weather by CustomWeather, © 2015

See weather overviewHow to use our weather pages